Location: Bas-Clignon
(44.2000°N, 6.6333°E)
Time: 13:18:04
(UTC+00:00)

COSMO-SKYMED 1 - Pass Details

Date: 03 February 2023
Orbit: 621 x 623 km, 97.9° (Epoch: 20 March)

Event Time Altitude Azimuth Distance (km) Brightness Sun altitude
Rises 17:07:04 0° 21° (NNE) 2,915 5.6 -4.4°
Reaches altitude 10° 17:09:25 10° 30° (NNE) 2,003 4.7 -4.8°
Maximum altitude 17:13:27 36° 97° (E) 990 3.2 -5.5°
Drops below altitude 10° 17:17:27 10° 165° (SSE) 1,987 5.2 -6.2°
Sets 17:19:46 0° 174° (S) 2,887 6.1 -6.6°
